Home   Weather   Chibougamau   Past weeks

Flag for Canada Past Weather in Chibougamau, Quebec, Canada — Yesterday and Last 2 Weeks

Now
28 °F

Light snow. Overcast.


Feels Like: 20 °F
Forecast: N/A
Wind: 8 mph from Northeast

Location: Chibougamau-Chapais

Current Time: Dec 2, 2016 at 5:32:17 pm

Latest Report: Dec 2, 2016 at 4:00 pm


Visibility: 9 mi

Pressure: 29.72 "Hg

Humidity: 93%

Dew Point: 27 °F

Location of ChibougamauLocation

Past Weather in Chibougamau — Graph

°F

Chibougamau Temperature Yesterday

Maximum temperature yesterday: 32 °F (at 12:00 am)
Minimum temperature yesterday: 28 °F (at 7:00 pm)
Average temperature yesterday: 30 °F

High & Low Weather Summary for the Past Weeks

 TemperatureHumidityPressure
High52 °F (Nov 19, 1:00 pm)100% (Nov 18, 6:51 am)30.39 "Hg (Nov 18, 6:51 am)
Low16 °F (Nov 24, 1:04 am)62% (Nov 19, 1:00 pm)29.26 "Hg (Nov 21, 6:00 am)
Average28 °F92%29.93 "Hg
* Reported Nov 17 4:00 pm — Dec 2 4:00 pm, Chibougamau, Weather by CustomWeather, © 2016

Note: Actual official high and low records may vary slightly from our data, if they occured in-between our weather recording intervals... More about our weather records

Advertising

Chibougamau Weather History for the Previous 24 Hours

Scroll right to see more
 ConditionsComfort  
Time TempWeatherWind HumidityBarometerVisibility
4:00 pm
Fri, Dec 2
28 °FLight snow. Overcast.8 mph93%29.72 "Hg9 mi
3:48 pm28 °FLight snow. Mostly cloudy.8 mph93%29.71 "Hg6 mi
3:00 pm28 °FLight snow. Overcast.6 mph93%29.69 "Hg4 mi
2:00 pm28 °FLight snow. More clouds than sun.9 mph93%29.66 "Hg3 mi
1:01 pm30 °FLight snow. Overcast.7 mph86%29.64 "Hg8 mi
12:00 pm28 °FOvercast.7 mph93%29.63 "Hg9 mi
11:00 am28 °FLight snow. Overcast.8 mph93%29.62 "Hg1 mi
10:51 am28 °FLight snow. Overcast.7 mph93%29.62 "Hg2 mi
10:00 am28 °FLight snow. Overcast.8 mph93%29.62 "Hg6 mi
9:00 am28 °FLight snow. Overcast.8 mph93%29.59 "Hg9 mi
8:00 am28 °FLight snow. Mostly cloudy.8 mph93%29.58 "Hg6 mi
7:50 am28 °FLight snow. Mostly cloudy.8 mph93%29.57 "Hg6 mi
7:00 am28 °FLight snow. Overcast.8 mph93%29.57 "Hg3 mi
6:00 am28 °FLight snow. Overcast.7 mph93%29.54 "Hg3 mi
5:54 am28 °FLight snow. Mostly cloudy.7 mph93%29.54 "Hg3 mi
5:00 am28 °FLight snow. Mostly cloudy.7 mph93%29.52 "Hg5 mi
4:00 am28 °FLight snow. Low clouds.6 mph93%29.51 "Hg2 mi
3:02 am28 °FLight snow. Mostly cloudy.7 mph93%29.49 "Hg4 mi
2:45 am28 °FLight snow. Mostly cloudy.7 mph93%29.49 "Hg5 mi
2:00 am28 °FLight snow. Overcast.8 mph93%29.48 "Hg4 mi
1:00 am28 °FLight snow. Overcast.8 mph93%29.47 "Hg4 mi
12:00 am28 °FLight snow. Low clouds.8 mph93%29.46 "Hg3 mi
11:00 pm
Thu, Dec 1
28 °FLight snow. Mostly cloudy.9 mph93%29.44 "Hg4 mi
10:00 pm28 °FLight snow. Mostly cloudy.9 mph93%29.43 "Hg8 mi
9:53 pm28 °FLight snow. Mostly cloudy.8 mph93%29.43 "Hg6 mi
9:02 pm28 °FLight snow. Mostly cloudy.9 mph100%29.43 "Hg3 mi
8:55 pm28 °FLight snow. Overcast.10 mph93%29.43 "Hg2 mi
8:00 pm28 °FLight snow. Overcast.13 mph93%29.42 "Hg1 mi
7:00 pm28 °FLight snow. Mostly cloudy.9 mph93%29.41 "Hg2 mi
6:00 pm30 °FLight snow. Overcast.13 mph93%29.40 "Hg1 mi
5:00 pm30 °FLight snow. Overcast.12 mph86%29.39 "Hg2 mi
Weather by CustomWeather, © 2016

See weather overviewHow to use our weather pages